Flag for United Kingdom Weather past 2 weeks in Sutton Coldfield, England, United Kingdom

Now
54 °F

Light rain. Partly sunny.


Feels Like: 49 °F
Forecast: 46 / 61 °F
Wind: 15 mph from Northeast

Location: Birmingham / Airport


UV Index: 0 (Low)

Visibility: 4 mi


Pressure: 29.68 "Hg

Humidity: 88%

Dew point: 50 °F

Location of Sutton ColdfieldLocation

Historic Weather in Sutton Coldfield

°F

Sutton Coldfield temperature yesterday

Maximum temperature yesterday: 55 °F (at 4:20 PM)
Minimum temperature yesterday: 30 °F (at 4:50 AM)
Average temperature yesterday: 44 °F

Past Weeks' High & Low Weather Summary

 TemperatureHumidityPressure
High61 °F (Apr 16, 3:50 PM)100% (Apr 6, 3:50 AM)30.45 "Hg (Apr 6, 3:50 AM)
Low30 °F (Apr 15, 5:50 AM)44% (Apr 15, 4:20 PM)29.59 "Hg (Apr 7, 2:20 PM)
Average49 °F74%30.09 "Hg
* Reported Apr 5 3:20 PM — Apr 20 3:20 PM, Sutton Coldfield, Weather by CustomWeather, © 2014

Note: Actual official high and low records may vary slightly from our data, if they occured in-between our weather recording intervals... More about our weather records

Advertising

Historic Weather Conditions — Data for Previous 24 hours

 ConditionsComfort  
Time TempWeatherWind HumidityBarometerVisibility
3:20 PM
Apr 20
52 °FLight rain. Partly sunny.16 mph94%29.71 "Hg2 mi
2:50 PM52 °FLight rain. Partly sunny.14 mph94%29.71 "Hg2 mi
2:20 PM52 °FLight rain. Mostly cloudy.16 mph94%29.74 "Hg3 mi
1:50 PM52 °FLight rain. Overcast.15 mph88%29.74 "Hg3 mi
1:20 PM52 °FDrizzle. Overcast.16 mph88%29.74 "Hg3 mi
12:50 PM52 °FLight rain. Overcast.14 mph88%29.77 "Hg4 mi
12:20 PM52 °FOvercast.13 mph88%29.77 "Hg4 mi
11:50 AM50 °FLow clouds.15 mph88%29.77 "Hg4 mi
11:20 AM50 °FLow clouds.16 mph88%29.77 "Hg4 mi
10:50 AM50 °FLow clouds.15 mph82%29.80 "Hg4 mi
10:20 AM50 °FLow clouds.16 mph82%29.80 "Hg5 mi
9:50 AM48 °FLow clouds.16 mph87%29.83 "Hg5 mi
9:20 AM46 °FLow clouds.14 mph87%29.83 "Hg3 mi
8:50 AM46 °FLow clouds.14 mph87%29.83 "Hg3 mi
8:20 AM45 °FLow clouds.14 mph93%29.83 "Hg3 mi
7:50 AM45 °FLow clouds.15 mph93%29.86 "Hg3 mi
7:20 AM45 °FLow clouds.15 mph93%29.86 "Hg3 mi
6:50 AM45 °FLow clouds.13 mph93%29.89 "Hg3 mi
6:20 AM45 °FLow clouds.13 mph87%29.89 "Hg3 mi
5:50 AM45 °FLow clouds.14 mph87%29.89 "Hg3 mi
5:20 AM45 °FLow clouds.12 mph87%29.89 "Hg3 mi
4:50 AM45 °FLow clouds.10 mph87%29.92 "Hg5 mi
4:20 AM43 °FLow clouds.10 mph93%29.92 "Hg5 mi
3:50 AM43 °FLow clouds.8 mph93%29.95 "Hg6 mi
3:20 AM43 °FLow clouds.12 mph93%29.95 "HgN/A
2:50 AM43 °FLow clouds.9 mph93%29.98 "HgN/A
2:20 AM43 °FLow clouds.8 mph93%29.98 "HgN/A
1:50 AM43 °FPassing clouds.8 mph87%30.01 "HgN/A
1:20 AM41 °FPassing clouds.7 mph93%30.01 "HgN/A
12:50 AM41 °FClear.6 mph93%30.01 "Hg10 mi
12:20 AM43 °FClear.6 mph87%30.04 "Hg10 mi
11:50 PM
Apr 19
43 °FPassing clouds.6 mph87%30.04 "HgN/A
11:20 PM43 °FClear.8 mph87%30.04 "Hg10 mi
10:50 PM43 °FClear.9 mph87%30.04 "Hg10 mi
10:20 PM45 °FClear.8 mph81%30.04 "Hg10 mi
9:50 PM46 °FClear.9 mph76%30.04 "Hg10 mi
9:20 PM46 °FClear.10 mph76%30.04 "Hg10 mi
8:50 PM48 °FSunny.10 mph76%30.04 "Hg10 mi
8:20 PM48 °FPassing clouds.10 mph76%30.04 "HgN/A
7:50 PM50 °FPassing clouds.10 mph67%30.04 "HgN/A
7:20 PM52 °FPassing clouds.12 mph62%30.04 "HgN/A
6:50 PM54 °FScattered clouds.13 mph58%30.04 "HgN/A
6:20 PM55 °FPassing clouds.10 mph55%30.04 "HgN/A
5:50 PM55 °FPassing clouds.9 mph55%30.04 "HgN/A
5:20 PM55 °FScattered clouds.8 mph55%30.04 "HgN/A
4:50 PM55 °FScattered clouds.9 mph55%30.04 "HgN/A
4:20 PM55 °FScattered clouds.9 mph55%30.07 "HgN/A
Weather by CustomWeather, © 2014

See weather overview